Tracking 29892 objects as of 21-Nov-2024
HD Live streaming from Space Station
objects crossing your sky now

THORAD AGENA D DEB

Track THORAD AGENA D DEB now!
10-day predictions


NORAD ID: 4653
Int'l Code: 1970-025AM
Perigee: 722.9 km
Apogee: 743.5 km
Inclination: 100.0 °
Period: 99.3 minutes
Semi major axis: 7104 km
RCS: 0.0427 m2 (small)
Launch date: April 8, 1970
Source: United States (US)
Launch site: AIR FORCE WESTERN TEST RANGE (AFWTR)

Note: This is SATELLITE DEBRIS
Your satellite tracking list
Your tracking list is empty




NASA's NSSDC Master Catalog

Two Line Element Set (TLE):
1  4653U 70025AM  24326.00066887  .00019362  00000-0  50071-2 0  9990
2  4653 100.0088 154.3657 0014485 175.7882 184.3431 14.49868314784076
Source of the keplerian elements: AFSPC